Weather History for Houghton Lake, MI

Change the Weather History Date:

Tuesday, October 1, 2013

  Actual Average Record
Temperature  
Mean Temperature 56 °F 51 °F  
Max Temperature 71 °F 62 °F 83 °F (1922)
Min Temperature 41 °F 40 °F 16 °F (1918)
Degree Days  
Heating Degree Days 9 14  
Month to date heating degree days 9 14  
Since 1 July heating degree days 396 395  
Cooling Degree Days 0 0  
Month to date cooling degree days 0 0  
Year to date cooling degree days 381 285  
Growing Degree Days 6 (Base 50)    
Moisture  
Dew Point 55 °F    
Average Humidity 85    
Maximum Humidity 100    
Minimum Humidity 70    
Precipitation  
Precipitation 0.00 in 0.10 in 0.63 in (1933)
Month to date precipitation 0.00 0.10  
Year to date precipitation 21.91 22.32  
Sea Level Pressure  
Sea Level Pressure 29.90 in    
Wind  
Wind Speed 9 mph (SW)    
Max Wind Speed 22 mph    
Max Gust Speed 29 mph    
Visibility 9 miles    
Events      
T = Trace of Precipitation, MM = Missing Value Source: NWS Daily Summary

Daily Weather History Graph

Daily Weather History Graph

Search for Another Location

Airport:

Trip Planner

Search our weather history database for the weather conditions in past years. The results will help you decide how hot, cold, wet, or windy it might be!

Date:

Astronomy

Oct. 01, 2013 Rise Set
Actual Time 7:36 AM EDT 7:18 PM EDT
Civil Twilight 7:07 AM EDT 7:47 PM EDT
Nautical Twilight 6:34 AM EDT 8:21 PM EDT
Astronomical Twilight 5:59 AM EDT 8:55 PM EDT
Moon 4:03 AM EDT (10/1) 5:27 PM EDT (10/1)
Length of Visible Light 12h 40m
Length of Day
11h 42m
Waning Crescent, 12% of the Moon is Illuminated
Oct 1
Waning Crescent
Oct 4
New
Oct 11
First Quarter
Oct 18
Full
Oct 26
Last Quarter

Hourly Weather History & Observations

Time (EDT) Temp. Windchill Dew Point Humidity Pressure Visibility Wind Dir Wind Speed Gust Speed Precip Events Conditions
12:53 AM 48.9 °F - 46.0 °F 90% 29.94 in 10.0 mi SSE 3.5 mph - N/A   Clear
1:53 AM 52.0 °F - 48.0 °F 86% 29.93 in 10.0 mi SSE 5.8 mph - N/A   Clear
2:53 AM 45.0 °F - 44.1 °F 97% 29.95 in 10.0 mi Calm Calm - N/A   Clear
3:53 AM 46.0 °F - 45.0 °F 96% 29.94 in 9.0 mi Calm Calm - N/A   Clear
4:01 AM 44.6 °F - 42.8 °F 93% 29.93 in 1.8 mi Calm Calm - N/A   Clear
4:08 AM 42.8 °F - 41.0 °F 93% 29.92 in 1.5 mi Calm Calm - N/A   Clear
4:10 AM 41.0 °F - 41.0 °F 100% 29.92 in 2.0 mi Calm Calm - N/A   Clear
4:18 AM 41.0 °F 39.0 °F 39.2 °F 93% 29.92 in 9.0 mi East 3.5 mph - N/A   Clear
4:53 AM 48.9 °F - 46.0 °F 90% 29.93 in 10.0 mi SW 4.6 mph - N/A   Clear
5:53 AM 55.9 °F - 51.1 °F 84% 29.92 in 10.0 mi SW 5.8 mph - N/A   Clear
6:53 AM 55.9 °F - 53.1 °F 90% 29.92 in 10.0 mi SSW 10.4 mph - N/A   Clear
7:53 AM 57.0 °F - 54.0 °F 89% 29.92 in 9.0 mi SSW 10.4 mph 17.3 mph N/A   Clear
8:53 AM 57.9 °F - 55.0 °F 90% 29.92 in 8.0 mi SW 9.2 mph - N/A   Clear
9:33 AM 60.8 °F - 55.4 °F 82% 29.92 in 9.0 mi SW 9.2 mph - N/A   Partly Cloudy
9:46 AM 59.0 °F - 55.4 °F 88% 29.92 in 7.0 mi SW 10.4 mph - N/A   Mostly Cloudy
9:53 AM 59.0 °F - 55.9 °F 90% 29.93 in 7.0 mi SW 9.2 mph - N/A   Mostly Cloudy
10:19 AM 60.8 °F - 57.2 °F 88% 29.91 in 5.0 mi SSW 6.9 mph - N/A   Overcast
10:53 AM 61.0 °F - 57.9 °F 90% 29.92 in 8.0 mi SW 9.2 mph 17.3 mph N/A   Overcast
11:15 AM 62.6 °F - 59.0 °F 88% 29.91 in 9.0 mi SSW 9.2 mph - N/A   Overcast
11:39 AM 64.4 °F - 59.0 °F 83% 29.89 in 10.0 mi SSW 8.1 mph - N/A   Overcast
11:53 AM 64.9 °F - 60.1 °F 84% 29.90 in 10.0 mi SSW 10.4 mph 18.4 mph N/A   Overcast
12:49 PM 66.2 °F - 60.8 °F 83% 29.89 in 10.0 mi SW 13.8 mph 19.6 mph N/A   Overcast
12:53 PM 66.0 °F - 60.1 °F 81% 29.89 in 10.0 mi SW 13.8 mph 20.7 mph N/A   Overcast
1:53 PM 69.1 °F - 60.1 °F 73% 29.87 in 10.0 mi SW 13.8 mph 26.5 mph N/A   Overcast
2:22 PM 69.8 °F - 59.0 °F 68% 29.87 in 10.0 mi SW 16.1 mph 27.6 mph N/A   Mostly Cloudy
2:42 PM 69.8 °F - 59.0 °F 68% 29.87 in 10.0 mi SW 17.3 mph 25.3 mph N/A   Mostly Cloudy
2:53 PM 70.0 °F - 60.1 °F 71% 29.87 in 10.0 mi SW 18.4 mph 26.5 mph N/A   Mostly Cloudy
3:44 PM 69.8 °F - 60.8 °F 73% 29.85 in 10.0 mi SSW 12.7 mph 26.5 mph N/A   Scattered Clouds
3:53 PM 70.0 °F - 60.1 °F 71% 29.85 in 10.0 mi SSW 16.1 mph 28.8 mph N/A   Scattered Clouds
4:11 PM 69.8 °F - 60.8 °F 73% 29.85 in 9.0 mi SW 16.1 mph 23.0 mph N/A   Mostly Cloudy
4:53 PM 68.0 °F - 59.0 °F 73% 29.86 in 9.0 mi SW 15.0 mph 26.5 mph N/A   Mostly Cloudy
5:53 PM 69.1 °F - 59.0 °F 70% 29.86 in 10.0 mi WSW 13.8 mph 24.2 mph N/A   Overcast
6:53 PM 66.9 °F - 59.0 °F 76% 29.86 in 10.0 mi SW 11.5 mph - N/A   Overcast
7:53 PM 64.9 °F - 60.1 °F 84% 29.87 in 10.0 mi SW 9.2 mph - N/A   Mostly Cloudy
8:03 PM 64.4 °F - 60.8 °F 88% 29.87 in 10.0 mi SW 10.4 mph - N/A   Scattered Clouds
8:53 PM 64.9 °F - 60.1 °F 84% 29.88 in 9.0 mi WSW 5.8 mph - N/A   Scattered Clouds
9:53 PM 64.0 °F - 61.0 °F 90% 29.88 in 9.0 mi WSW 9.2 mph - N/A   Clear
10:53 PM 64.0 °F - 61.0 °F 90% 29.89 in 9.0 mi West 6.9 mph - N/A   Clear
11:53 PM 63.0 °F - 61.0 °F 93% 29.89 in 8.0 mi WSW 5.8 mph - N/A   Clear